CDT,Max TemperatureF,Mean TemperatureF,Min TemperatureF,Max Dew PointF,MeanDew PointF,Min DewpointF,Max Humidity, Mean Humidity, Min Humidity, Max Sea Level PressureIn, Mean Sea Level PressureIn, Min Sea Level PressureIn, Max VisibilityMiles, Mean VisibilityMiles, Min VisibilityMiles, Max Wind SpeedMPH, Mean Wind SpeedMPH, Max Gust SpeedMPH,PrecipitationIn, CloudCover, Events, WindDirDegrees
2013-3-1,75,52,28,24,17,9,67,32,10,30.29,30.22,30.10,10,10,10,22,8,26,0.00,0,,341
2013-3-2,72,52,33,26,23,16,61,35,17,30.44,30.33,30.25,10,10,10,16,8,24,0.00,0,,9
2013-3-3,79,56,32,41,28,21,69,39,15,30.27,30.12,29.94,10,10,10,22,6,29,0.00,0,,178
2013-3-4,90,64,39,49,37,27,80,46,10,29.93,29.82,29.71,10,10,10,8,5,,0.00,0,,73
2013-3-5,70,54,36,40,26,14,63,35,15,30.37,30.20,29.80,10,10,10,29,14,43,0.00,0,,16
2013-3-6,62,44,27,21,16,11,67,34,16,30.44,30.33,30.22,10,10,10,12,8,18,0.00,0,,85
2013-3-7,73,54,36,57,44,24,81,62,44,30.23,30.15,30.07,10,10,10,20,8,26,0.00,3,,119
2013-3-8,73,68,62,63,60,57,90,79,68,30.13,30.05,29.97,10,10,7,20,14,31,0.00,8,Rain,134
2013-3-9,84,73,62,67,64,60,100,87,47,29.96,29.81,29.61,10,6,2,24,12,31,0.06,7,Rain-Thunderstorm,127
2013-3-10,70,58,42,58,41,29,96,57,23,30.15,29.92,29.73,10,10,5,28,16,33,0.01,2,Rain-Thunderstorm,352
2013-3-11,73,54,34,37,27,21,82,46,15,30.21,30.12,30.00,10,10,10,16,6,21,0.00,0,,350
2013-3-12,81,58,35,39,31,23,81,47,13,30.21,30.12,30.06,10,10,10,17,5,22,0.00,0,,91
2013-3-13,78,60,41,44,38,35,82,46,23,30.42,30.31,30.24,10,10,2,13,7,17,0.00,0,,115
2013-3-14,81,63,46,54,45,39,84,56,23,30.39,30.30,30.20,10,10,9,16,7,20,0.00,3,,139
2013-3-15,84,64,46,56,50,42,97,66,27,30.24,30.14,29.98,10,10,6,17,7,23,0.00,2,,145
2013-3-16,88,66,46,61,51,45,93,61,24,29.99,29.86,29.72,10,10,10,20,9,26,0.00,0,,142
2013-3-17,88,74,61,62,58,49,94,69,30,29.80,29.73,29.61,10,10,9,10,6,,0.00,3,,130
2013-3-18,97,80,64,64,45,12,94,51,5,29.90,29.78,29.70,10,8,4,21,6,24,0.00,3,,20
2013-3-19,87,68,48,61,53,42,77,56,37,29.99,29.90,29.78,10,10,9,12,8,18,0.00,0,,103
2013-3-20,77,66,57,61,48,39,82,53,28,30.23,30.08,29.94,10,10,9,21,13,29,0.00,5,Rain,69
2013-3-21,75,66,57,59,52,35,84,63,35,30.00,29.81,29.63,10,10,10,18,12,22,0.00,6,,167
2013-3-22,88,72,55,66,60,52,100,82,29,29.75,29.68,29.58,10,6,1,12,2,,0.00,6,,112
2013-3-23,90,76,62,66,56,31,90,65,13,29.75,29.67,29.54,10,8,2,17,9,24,0.00,5,,107
2013-3-24,71,58,45,58,27,14,73,35,14,30.16,30.00,29.70,10,10,5,29,17,36,0.00,2,,17
2013-3-25,63,50,37,23,14,6,55,28,11,30.37,30.27,30.14,10,10,10,17,10,20,0.00,0,,77
2013-3-26,68,50,33,24,19,17,52,29,15,30.49,30.37,30.27,10,10,10,14,8,24,0.00,0,,109
2013-3-27,70,57,45,49,40,26,64,51,39,30.30,30.23,30.14,10,10,10,18,11,25,0.00,7,,151
2013-3-28,71,64,59,58,54,49,78,72,65,30.21,30.15,30.11,10,10,10,17,9,,0.00,8,,144
2013-3-29,80,70,60,60,58,56,90,70,48,30.17,30.10,30.02,10,10,9,17,11,22,0.00,6,,151
2013-3-30,86,74,63,63,61,57,90,70,41,30.11,30.01,29.87,10,10,6,15,9,17,0.00,5,,152
2013-3-31,84,72,60,64,61,54,94,76,50,29.96,29.90,29.84,10,9,5,18,7,29,0.00,3,Rain-Thunderstorm,93